Location: Saratoga Springs
(43.0831°N, 73.7850°W)
Time: 22:33:04
(UTC-04:00)

Vanguard 2 Rocket - Pass Details

Date: 22 April 2024
Orbit: 556 x 3304 km, 32.9° (Epoch: 21 May)

Event Time Altitude Azimuth Distance (km) Brightness Sun altitude
Rises 01:13:12 0° 268° (W) 6,853 11.3 -34.4°
Reaches altitude 10° 01:17:35 10° 265° (W) 6,031 10.9 -34.3°
Maximum altitude 01:36:48 58° 193° (SSW) 3,596 9.4 -33.7°
Drops below altitude 10° 01:53:27 10° 121° (ESE) 5,305 10.6 -32.9°
Sets 01:57:02 0° 117° (ESE) 6,020 11.0 -32.7°
